Satellite-Ground Cal/Val Region Overpasses Predictions

Prediction of Satellite NPP Overpassing Cal/Val Region: PacNW

Region Location: (Latitude: 10.00, Longitude: 139.50) to (Latitude: 22.70, Longitude: 165.60).

Table of predicted overpasses for the next 14.0 days since TLE Epoch: 10/4/2019
Interval Starting Time Starting Location Ending Time Ending Location
1 10/05/2019 02:39:40 ( 10.05, 159.88) 10/05/2019 02:43:15 ( 22.67, 156.88)
2 10/05/2019 15:11:33 ( 22.67, 157.10) 10/05/2019 15:15:08 ( 10.05, 154.10)
3 10/06/2019 02:20:38 ( 10.03, 164.64) 10/06/2019 02:24:13 ( 22.65, 161.64)
4 10/06/2019 14:52:30 ( 22.69, 161.86) 10/06/2019 14:56:06 ( 10.01, 158.85)
5 10/07/2019 03:43:05 ( 10.01, 144.02) 10/07/2019 03:46:41 ( 22.69, 141.01)
6 10/07/2019 14:34:40 ( 18.49, 165.59) 10/07/2019 14:37:04 ( 10.04, 163.61)
7 10/07/2019 16:14:59 ( 22.65, 141.23) 10/07/2019 16:17:00 ( 15.55, 139.51)
8 10/08/2019 03:24:04 ( 10.05, 148.77) 10/08/2019 03:27:39 ( 22.67, 145.77)
9 10/08/2019 15:55:56 ( 22.67, 145.99) 10/08/2019 15:59:31 ( 10.05, 143.00)
10 10/09/2019 03:05:01 ( 10.03, 153.53) 10/09/2019 03:08:36 ( 22.65, 150.53)
11 10/09/2019 15:36:54 ( 22.70, 150.76) 10/09/2019 15:40:30 ( 10.02, 147.74)
12 10/10/2019 02:45:59 ( 10.00, 158.29) 10/10/2019 02:49:35 ( 22.69, 155.28)
13 10/10/2019 15:17:52 ( 22.66, 155.50) 10/10/2019 15:21:27 ( 10.04, 152.51)
14 10/11/2019 02:26:57 ( 10.04, 163.04) 10/11/2019 02:30:32 ( 22.66, 160.04)
15 10/11/2019 14:58:50 ( 22.68, 160.26) 10/11/2019 15:02:26 ( 10.00, 157.25)
16 10/12/2019 02:10:35 ( 19.42, 165.60) 10/12/2019 02:11:30 ( 22.64, 164.80)
17 10/12/2019 03:49:25 ( 10.03, 142.42) 10/12/2019 03:52:55 ( 22.36, 139.50)
18 10/12/2019 14:39:49 ( 22.65, 165.01) 10/12/2019 14:43:24 ( 10.02, 162.01)
19 10/12/2019 16:21:17 ( 22.70, 139.65) 10/12/2019 16:21:27 ( 22.11, 139.50)
20 10/13/2019 03:30:22 ( 10.01, 147.19) 10/13/2019 03:33:58 ( 22.69, 144.17)
21 10/13/2019 16:02:16 ( 22.66, 144.40) 10/13/2019 16:05:51 ( 10.04, 141.40)
22 10/14/2019 03:11:21 ( 10.04, 151.93) 10/14/2019 03:14:56 ( 22.67, 148.94)
23 10/14/2019 15:43:14 ( 22.68, 149.16) 10/14/2019 15:46:50 ( 10.00, 146.15)
24 10/15/2019 02:52:18 ( 10.02, 156.69) 10/15/2019 02:55:53 ( 22.65, 153.70)
25 10/15/2019 15:24:12 ( 22.64, 153.90) 10/15/2019 15:27:47 ( 10.02, 150.91)
26 10/16/2019 02:33:16 ( 10.00, 161.46) 10/16/2019 02:36:52 ( 22.69, 158.44)
27 10/16/2019 15:05:10 ( 22.66, 158.67) 10/16/2019 15:08:45 ( 10.04, 155.67)
28 10/17/2019 02:14:59 ( 12.69, 165.60) 10/17/2019 02:17:49 ( 22.67, 163.21)
29 10/17/2019 03:55:44 ( 10.05, 140.83) 10/17/2019 03:57:21 ( 15.75, 139.51)
30 10/17/2019 14:46:07 ( 22.68, 163.43) 10/17/2019 14:49:43 ( 10.00, 160.42)
31 10/18/2019 03:36:42 ( 10.03, 145.59) 10/18/2019 03:40:17 ( 22.65, 142.59)
32 10/18/2019 14:30:10 ( 11.84, 165.59) 10/18/2019 14:30:41 ( 10.02, 165.18)


NCC Satellite Cal/Val Overpasses Prediction Service
